{"data":{"norad_id":61695,"intl_designator":"2024-195J","name":"STARLINK-11327 [DTC]","alt_names":[],"object_type":"PAYLOAD","status":"ACTIVE","operator":null,"country":"US","launch_date":"2024-10-30","launch_site_code":"AFWTR","launch_vehicle":null,"mission":null,"orbit_class":"UNKNOWN","rcs_meters":null,"size_class":null,"mass_kg":null,"dimensions":null,"purposes":["comms"],"wikipedia_slug":null,"has_3d_model":false,"image_url":null,"decayed_at":null,"tle_current":{"epoch":"2026-09-21T20:18:37.534464Z","epoch_age_seconds":71941,"freshness":"FRESH","line1":"1 61695U 24195J   26264.84626776 -.00000490  00000+0  81737-6 0  9999","line2":"2 61695  53.1593 139.1735 0001207  80.9587 279.1567 15.69704005109847","mean_motion":15.69704005,"eccentricity":0.0001207,"inclination_deg":53.1593,"raan_deg":139.1735,"arg_perigee_deg":80.9587,"mean_anomaly_deg":279.1567,"bstar":8.1737e-7,"rev_number":10984,"period_min":91.73704057664,"perigee_km":358.93064364428,"apogee_km":360.55716809496,"semimajor_km":6737.8809058696,"source":"CELESTRAK","updated_at":"2026-09-22T09:00:49.407524Z"}}}